This demonstration page uses our WeatherBlox Daily Observations layout. Learn more.

Left ArrowRight Arrow

39.95238, -75.16362

Hourly Observations for January 16, 2022

Temp ( °F °C ) Dew Point ( °F °C ) Humidity (%) Winds ( mph kmh ) Pressure ( in mb ) Visibility ( mi km ) Precip ( " mm )
12:54 am 00:54 Clear 16 -8.9 -4 -20 41 41 N 5 7 30.40 1030 10 16 0.00 0.00
1:54 am 01:54 Clear 14 -10 -4 -20 44 44 NE 6 9 30.42 1030 10 16 0.00 0.00
2:54 am 02:54 Clear 14 -10 -4 -20 44 44 NE 6 9 30.42 1030 10 16 0.00 0.00
3:54 am 03:54 Clear 13 -10.6 -3 -19.4 49 49 NE 7 11 30.40 1030 10 16 0.00 0.00
4:54 am 04:54 Clear 13 -10.6 -3 -19.4 49 49 NE 6 9 30.40 1030 10 16 0.00 0.00
5:54 am 05:54 Clear 14 -10 -4 -20 44 44 NNE 9 15 30.40 1030 10 16 0.00 0.00
6:54 am 06:54 Clear 13 -10.6 -3 -19.4 49 49 NE 8 13 30.41 1030 10 16 0.00 0.00
7:54 am 07:54 Partly Cloudy 14 -10 -2 -18.9 49 49 NE 10 17 30.40 1030 10 16 0.00 0.00
8:54 am 08:54 Partly Cloudy 17 -8.3 1 -17.2 49 49 NE 9 15 30.40 1030 10 16 0.00 0.00
9:54 am 09:54 Partly Cloudy 19 -7.2 5 -15 54 54 NE 10 17 30.38 1029 10 16 0.00 0.00
10:54 am 10:54 Mostly Cloudy 22 -5.6 8 -13.3 55 55 NE 6 9 30.36 1028 10 16 0.00 0.00
11:54 am 11:54 Cloudy 26 -3.3 11 -11.7 53 53 NE 7 11 30.29 1026 10 16 0.00 0.00
12:54 pm 12:54 Cloudy 27 -2.8 13 -10.6 55 55 ENE 6 9 30.26 1025 10 16 0.00 0.00
1:54 pm 13:54 Cloudy 28 -2.2 15 -9.4 58 58 NNE 14 22 30.19 1023 10 16 0.00 0.00
2:54 pm 14:54 Cloudy 28 -2.2 17 -8.3 63 63 NE 13 20 30.14 1021 10 16 0.00 0.00
3:54 pm 15:54 Cloudy 28 -2.2 17 -8.3 63 63 NE 18 30 30.10 1019 10 16 0.00 0.00
4:54 pm 16:54 Cloudy 29 -1.7 18 -7.8 63 63 NE 14 22 30.07 1018 10 16 0.00 0.00
4:59 pm 16:59 Cloudy with Light Snow 29 -1.7 18 -7.8 63 63 NE 15 24 30.06 1018 10 16 0.00 0.00
5:15 pm 17:15 Cloudy with Light Snow 29 -1.7 18 -7.8 63 63 NE 12 19 30.05 1018 6 10 0.00 0.00
5:20 pm 17:20 Cloudy with Light Snow 29 -1.7 19 -7.2 66 66 NE 14 22 30.04 1017 3 4 0.00 0.00
5:54 pm 17:54 Cloudy with Light Snow 28 -2.2 22 -5.6 78 78 NE 13 20 30.01 1016 2 3 0.00 0.00
6:07 pm 18:07 Cloudy with Light Snow 28 -2.2 22 -5.6 78 78 NE 13 20 30.00 1016 2 3 0.01 0.25
6:37 pm 18:37 Cloudy with Light Snow 28 -2.2 23 -5 81 81 NE 17 28 29.96 1015 2 2 0.03 0.76
6:54 pm 18:54 Cloudy with Light Snow 29 -1.7 24 -4.4 82 82 NE 14 22 29.95 1014 1 2 0.04 1.02
7:27 pm 19:27 Cloudy with Light Snow 30 -1.1 26 -3.3 85 85 NE 13 20 29.90 1013 3 5 0.06 1.52
7:34 pm 19:34 Cloudy with Mist and Fog 30 -1.1 26 -3.3 85 85 NE 16 26 29.89 1012 3 5 0.07 1.78
7:40 pm 19:40 Cloudy with Mist and Fog 31 -0.6 27 -2.8 85 85 NE 14 22 29.88 1012 6 10 0.08 2.03
7:54 pm 19:54 Cloudy with Mist and Fog 32 0 28 -2.2 85 85 NE 17 28 29.85 1011 6 10 0.10 2.54
8:03 pm 20:03 Cloudy with Light Freezing Rain 33 0.6 29 -1.7 85 85 NE 18 30 29.85 1011 7 11 0.01 0.25
8:29 pm 20:29 Cloudy with Light Rain 34 1.1 30 -1.1 85 85 NE 16 26 29.81 1010 5 8 0.03 0.76
8:54 pm 20:54 Cloudy with Light Rain 35 1.7 31 -0.6 85 85 NE 17 28 29.76 1008 5 8 0.07 1.78
9:08 pm 21:08 Cloudy with Light Rain 35 1.7 32 0 89 89 NE 18 30 29.72 1007 6 10 0.01 0.25
9:23 pm 21:23 Cloudy with Light Rain 36 2.2 32 0 86 86 NE 17 28 29.69 1006 4 6 0.02 0.51
9:54 pm 21:54 Cloudy with Light Rain 37 2.8 34 1.1 89 89 NE 16 26 29.65 1004 4 6 0.06 1.52
10:10 pm 22:10 Cloudy with Rain 37 2.8 34 1.1 89 89 NE 16 26 29.62 1003 2 3 0.03 0.76
10:19 pm 22:19 Cloudy with Rain 37 2.8 35 1.7 93 93 NE 16 26 29.60 1002 2 2 0.04 1.02
10:31 pm 22:31 Cloudy with Rain 38 3.3 35 1.7 89 89 NE 15 24 29.58 1002 3 4 0.07 1.78
10:54 pm 22:54 Cloudy with Rain 39 3.9 37 2.8 93 93 NE 15 24 29.54 1001 3 4 0.14 3.56
11:01 pm 23:01 Cloudy with Light Rain 40 4.4 37 2.8 89 89 ENE 15 24 29.54 1000 3 5 0.02 0.51
11:21 pm 23:21 Cloudy with Light Rain 44 6.7 41 5 89 89 ENE 15 24 29.49 999 4 6 0.07 1.78
11:54 pm 23:54 Cloudy with Light Rain 46 7.8 42 5.6 86 86 ENE 18 30 29.41 996 4 6 0.18 4.57

Powered by AerisWeather